Location: Bothwell
(42.3833°S, 147.0000°E)
Time: 22:23:22
(UTC+11:00)

UWE-3 - Pass Details

Date: 26 September 2022
Orbit: 582 x 675 km, 97.7° (Epoch: 03 December)

Event Time Altitude Azimuth Distance (km) Brightness Sun altitude
Exits shadow 02:11:43 11° 178° (S) 2,008 ? -37.9°
Drops below altitude 10° 02:11:56 10° 179° (S) 2,094 ? -37.9°
Sets 02:14:18 0° 185° (S) 3,027 ? -37.6°
